FW5175 Weather Reports


time (UTC)temp
F
wind
direction
speed
knots
gust
knots
rain 1hr
in
rain 24hr
in
rain mn
in
humidity
%
barometer
mb
20260504044533 44 226 2.6 8.7 0.00 0.00 0.00 60 1014.5
20260504041517 44 196 1.7 6.1 0.00 0.00 0.00 59 1014.3
20260504040020 44 180 2.6 7.8 0.00 0.00 0.00 58 1014.5
20260504034517 44 197 2.6 6.1 0.00 0.00 0.00 58 1014.4
20260504031518 45 195 1.7 6.1 0.00 0.00 0.00 58 1014.5
20260504030014 45 241 2.6 7.0 0.00 0.00 0.00 57 1014.6
20260504024514 45 192 1.7 7.0 0.00 0.00 0.00 56 1014.7
20260504021518 46 239 2.6 6.1 0.00 0.00 0.00 54 1014.9
20260504020015 46 230 1.7 6.1 0.00 0.00 0.00 54 1014.9
20260504014514 47 195 1.7 7.0 0.00 0.00 0.00 53 1014.6
20260504011513 48 215 1.7 10.4 0.00 0.00 0.00 51 1014.4
20260504010013 48 209 2.6 8.7 0.00 0.00 0.00 51 1014.6
20260504004518 48 195 2.6 7.8 0.00 0.00 0.00 50 1014.3
20260504001512 49 197 2.6 9.6 0.00 0.00 0.00 49 1014.3
20260504000012 49 246 2.6 10.4 0.00 0.00 0.00 49 1014.2
20260503234517 49 277 3.5 12.2 0.00 0.00 0.00 47 1014.1
20260503231520 50 239 2.6 8.7 0.00 0.00 0.00 47 1014.1
20260503230017 50 259 6.1 15.6 0.00 0.00 0.00 46 1014.0
20260503224515 50 246 7.8 16.5 0.00 0.00 0.00 46 1014.1
20260503221512 50 242 5.2 10.4 0.00 0.00 0.00 46 1014.0
20260503220012 50 223 5.2 12.2 0.00 0.00 0.00 46 1014.2
20260503214532 50 202 4.3 14.8 0.00 0.00 0.00 46 1014.1
20260503211512 51 245 5.2 13.0 0.00 0.00 0.00 45 1014.1
20260503210010 51 285 3.5 15.6 0.00 0.00 0.00 46 1014.1
20260503204508 51 228 5.2 13.9 0.00 0.00 0.00 47 1014.1
20260503201503 49 236 7.0 13.0 0.00 0.00 0.00 49 1014.3
20260503200001 48 246 7.0 14.8 0.00 0.00 0.00 50 1014.5
20260503194605 49 250 6.1 13.9 0.00 0.00 0.00 49 1014.7
20260503191604 49 220 7.8 14.8 0.00 0.00 0.00 48 1015.0
20260503190054 49 241 4.3 13.9 0.00 0.00 0.00 49 1015.2
20260503184604 48 244 6.1 10.4 0.00 0.00 0.00 48 1015.1
20260503181608 48 270 9.6 16.5 0.00 0.00 0.00 47 1015.4
20260503180107 47 251 7.0 17.4 0.00 0.00 0.00 48 1015.5
20260503174556 49 270 5.2 16.5 0.00 0.00 0.00 46 1015.4
20260503171555 48 278 4.3 13.9 0.00 0.00 0.00 44 1015.6
20260503081543 31 260 4.3 8.7 0.00 0.00 0.00 85 1016.0
20260503071530 31 253 2.6 10.4 0.00 0.00 0.00 84 1015.8
20260503054523 31 251 4.3 8.7 0.00 0.00 0.00 83 1016.2
20260503053122 32 263 2.6 8.7 0.00 0.00 0.00 83 1016.2
20260503051533 32 289 2.6 8.7 0.00 0.00 0.00 83 1016.5
20260503050023 32 263 1.7 6.1 0.00 0.00 0.00 83 1016.7